Погода в Жижока-ди-Жерикуакуаре

Бразилия     2°54′05″S   40°26′50″W
темп.,
°C
ветер,
м/с
пор.,
м/с
влажн.,
%
обл.,
%
осадки,
мм/ч
давл.,
гПа
погр.,
м
27 февраля, сб
сб2700:00+23вюв129682 0.0 101170
03:00+23юв229790 0.0 100974
06:00+22юв249826 0.0 1010100
09:00+27вюв358422 0.8 1011663
12:00+28в357846 4.7 1010892
15:00+28св468060 10.0 10071000
18:00+25всв3886100 0.8 1008407
21:00+24всв259099 0.8 1010207
28 февраля, вс
вс2800:00+23вюв129576 0.0 101031
03:00+23вюв129686 0.1 100827
06:00+23юв229734 0.2 100949
09:00+27в357958 0.6 1011787
12:00+29в357319 2.6 10091183
15:00+29всв357643 6.8 10071059
18:00+25св388240 0.6 1007344
21:00+24в278670 0.6 1008257
1 марта, пн
пн100:00+23в1291100 0.0 100833
03:00+23юв229789 0.0 100745
06:00+22юв229826 0.4 100788
09:00+28вюв477615 0.5 1009967
12:00+30в466254 0.3 10081547
15:00+30всв577143 2.6 10051332
18:00+26всв4107746 0.1 1006606
21:00+24в3108867 0.1 1009435
2 марта, вт
вт200:00+23в2791100 0.0 1009230
03:00+22юв2496100 0.0 1008136
06:00+22вюв2797100 0.0 1008252
09:00+27в477884 0.8 10111002
12:00+29в577223 2.1 10101240
15:00+29всв697154 4.4 10071209
18:00+26всв4108178 0.0 1009670
21:00+24всв3108983 0.0 1011506
3 марта, ср
ср300:00+23всв2993100 0.1 1012371
03:00+23в289699 1.1 1010286
06:00+22юв249778 0.1 1011136
09:00+28вюв467674 0.2 1013973
12:00+30в476631 1.4 10121377
15:00+31всв576328 2.9 10091521
18:00+26всв410798 0.1 1010582
21:00+24всв3108810 0.2 1012456